{"data":{"norad_id":65695,"epoch":"2026-09-20T10:53:18.115296Z","epoch_age_seconds":113029,"freshness":"FRESH","line1":"1 65695U 25212V   26263.45368189  .00019549  00000+0  63966-3 0  9996","line2":"2 65695  53.1591 160.2433 0001183  89.8151 270.2987 15.31720114 57081","mean_motion":15.31720114,"eccentricity":0.0001183,"inclination_deg":53.1591,"raan_deg":160.2433,"arg_perigee_deg":89.8151,"mean_anomaly_deg":270.2987,"bstar":0.00063966,"rev_number":5708,"period_min":94.011953413573,"perigee_km":469.86982203894,"apogee_km":471.49025214992,"semimajor_km":6848.8170370944,"source":"CELESTRAK","updated_at":"2026-09-21T09:00:35.689028Z"}}